This is the latest recevied weather packets stored in our database for station/object WB3IGR. If no packets are shown the sender has not sent any weather packets the latest 10 day(s).
| Time | Temp. | Humidity | Pressure | Rain* | Wind** | Luminosity | Snow |
|---|---|---|---|---|---|---|---|
| 1777937057 | 20.56° C | 47% | 1010.4 hPa | 0 mm | - | 31 W/m² | - |
| 1777936754 | 20.56° C | 48% | 1010.4 hPa | 0 mm | - | 35 W/m² | - |
| 1777936450 | 20.56° C | 48% | 1010.5 hPa | 0 mm | - | 40 W/m² | - |
| 1777936147 | 20.56° C | 47% | 1010.2 hPa | 0 mm | - | 45 W/m² | - |
| 1777935844 | 21.11° C | 46% | 1010.1 hPa | 0 mm | - | 62 W/m² | - |
| 1777935543 | 21.11° C | 47% | 1010.1 hPa | 0 mm | - | 76 W/m² | - |
| 1777935239 | 21.11° C | 46% | 1010.2 hPa | 0 mm | - | 85 W/m² | - |
| 1777934937 | 21.67° C | 46% | 1010.2 hPa | 0 mm | - | 101 W/m² | - |
| 1777934633 | 22.22° C | 43% | 1010.4 hPa | 0 mm | - | 117 W/m² | - |
| 1777934330 | 22.22° C | 43% | 1010.3 hPa | 0 mm | - | 130 W/m² | - |
| 1777934025 | 22.22° C | 42% | 1010.2 hPa | 0 mm | - | 149 W/m² | - |
| 1777933722 | 22.78° C | 42% | 1010.3 hPa | 0 mm | - | 158 W/m² | - |
| 1777933419 | 22.78° C | 42% | 1010.1 hPa | 0 mm | - | 179 W/m² | - |
| 1777933118 | 22.78° C | 41% | 1010.2 hPa | 0 mm | - | 189 W/m² | - |
| 1777932814 | 22.78° C | 42% | 1010.3 hPa | 0 mm | - | 199 W/m² | - |
| 1777932511 | 22.78° C | 44% | 1010.3 hPa | 0 mm | - | 204 W/m² | - |
| 1777932208 | 22.78° C | 41% | 1010.2 hPa | 0 mm | - | 237 W/m² | - |
| 1777931905 | 22.78° C | 42% | 1010 hPa | 0 mm | - | 261 W/m² | - |
| 1777931601 | 22.78° C | 41% | 1010.2 hPa | 0 mm | - | 278 W/m² | - |
| 1777931297 | 22.78° C | 41% | 1010.3 hPa | 0 mm | - | 281 W/m² | - |
| 1777930995 | 22.78° C | 41% | 1010.5 hPa | 0 mm | - | 309 W/m² | - |
| 1777930691 | 23.33° C | 40% | 1010.4 hPa | 0 mm | - | 309 W/m² | - |
| 1777930387 | 22.78° C | 41% | 1010.3 hPa | 0 mm | - | 331 W/m² | - |
| 1777930085 | 22.78° C | 42% | 1010.4 hPa | 0 mm | - | 353 W/m² | - |
| 1777929780 | 22.78° C | 41% | 1010.4 hPa | 0 mm | - | 379 W/m² | - |
* Rain latest hour (hover to see other rain measurements)
** Current wind speed in m/s (hover to see current wind gust speed)